Location: Bakov nad Jizerou
(50.4784°N, 14.9394°E)
Time: 09:28:44
(UTC+00:00)

SJ 16-02 - Pass Details

Date: 16 June 2021
Orbit: 606 x 616 km, 75.0° (Epoch: 04 August)

Event Time Altitude Azimuth Distance (km) Brightness Sun altitude
Rises 22:09:58 0° 345° (NNW) 2,879 6.7 -15.3°
Reaches altitude 10° 22:12:36 10° 360° (N) 1,969 5.3 -15.4°
Maximum altitude 22:16:08 23° 54° (NE) 1,293 3.3 -15.5°
Drops below altitude 10° 22:19:40 10° 108° (ESE) 1,957 3.7 -15.6°
Enters shadow 22:20:07 - 111° (ESE) 2,103 3.8 -15.6°
